| time (UTC) | temp F | wind direction | speed MPH | gust MPH | rain 1hr in | rain 24hr in | rain mn in | humidity % | barometer mb |
| 20260905174038 | 77 | 105 | 0.0 | 0.0 | 0.00 | 0.01 | 0.00 | 91 | 1011.1 |
| 20260905173504 | 77 | 105 | 0.0 | 0.0 | 0.00 | 0.01 | 0.00 | 92 | 1011.2 |
| 20260905172400 | 78 | 105 | 0.0 | 0.0 | 0.00 | 0.01 | 0.00 | 92 | 1011.2 |
| 20260905171256 | 78 | 85 | 0.0 | 0.0 | 0.00 | 0.01 | 0.00 | 91 | 1011.5 |
| 20260905164522 | 77 | 84 | 0.0 | 0.0 | 0.00 | 0.01 | 0.00 | 91 | 1011.6 |
| 20260905163947 | 77 | 84 | 0.0 | 0.0 | 0.00 | 0.01 | 0.00 | 91 | 1011.7 |
| 20260905163414 | 77 | 86 | 0.0 | 0.0 | 0.00 | 0.01 | 0.00 | 93 | 1011.6 |
| 20260905162840 | 77 | 85 | 0.0 | 0.0 | 0.00 | 0.01 | 0.00 | 92 | 1011.8 |
| 20260905162306 | 77 | 85 | 0.0 | 0.0 | 0.00 | 0.01 | 0.00 | 92 | 1011.8 |
| 20260905161731 | 76 | 85 | 0.0 | 0.0 | 0.00 | 0.01 | 0.00 | 93 | 1011.8 |
| 20260905160627 | 77 | 85 | 0.0 | 0.0 | 0.00 | 0.01 | 0.00 | 92 | 1012.1 |
| 20260905160052 | 77 | 85 | 1.0 | 0.0 | 0.00 | 0.01 | 0.00 | 93 | 1012.1 |
| 20260905155518 | 76 | 121 | 0.0 | 0.0 | 0.00 | 0.01 | 0.00 | 93 | 1012.0 |
| 20260905154944 | 76 | 121 | 0.0 | 0.0 | 0.00 | 0.01 | 0.00 | 94 | 1012.1 |
| 20260905154410 | 76 | 135 | 0.0 | 0.0 | 0.00 | 0.01 | 0.00 | 96 | 1012.0 |
| 20260905153306 | 76 | 120 | 0.0 | 0.0 | 0.00 | 0.01 | 0.00 | 95 | 1012.1 |
| 20260905152732 | 76 | 134 | 0.0 | 0.0 | 0.00 | 0.01 | 0.00 | 97 | 1012.1 |
| 20260905152158 | 76 | 134 | 0.0 | 0.0 | 0.00 | 0.01 | 0.00 | 97 | 1012.1 |
| 20260905150524 | 76 | 134 | 0.0 | 0.0 | 0.00 | 0.01 | 0.00 | 97 | 1012.2 |
| 20260905145949 | 76 | 134 | 0.0 | 0.0 | 0.00 | 0.01 | 0.00 | 96 | 1012.2 |
| 20260905144845 | 76 | 134 | 0.0 | 0.0 | 0.00 | 0.01 | 0.00 | 97 | 1012.1 |
| 20260905144311 | 76 | 134 | 0.0 | 0.0 | 0.00 | 0.01 | 0.00 | 97 | 1012.0 |
| 20260905141007 | 75 | 131 | 0.0 | 0.0 | 0.00 | 0.01 | 0.00 | 97 | 1012.0 |
| 20260905135903 | 75 | 93 | 1.0 | 0.0 | 0.00 | 0.01 | 0.00 | 99 | 1011.7 |
| 20260905134229 | 74 | 83 | 0.0 | 0.0 | 0.00 | 0.01 | 0.00 | 10 | 1011.4 |
| 20260905133654 | 74 | 141 | 0.0 | 0.0 | 0.00 | 0.01 | 0.00 | 10 | 1011.5 |
| 20260905133120 | 74 | 269 | 0.0 | 0.0 | 0.00 | 0.01 | 0.00 | 10 | 1011.5 |
| 20260905132546 | 74 | 281 | 1.0 | 0.0 | 0.00 | 0.01 | 0.00 | 10 | 1011.4 |
| 20260905131443 | 73 | 238 | 0.0 | 0.0 | 0.00 | 0.01 | 0.00 | 10 | 1011.5 |
| 20260905130908 | 73 | 238 | 0.0 | 0.0 | 0.00 | 0.01 | 0.00 | 10 | 1011.5 |
| 20260905130334 | 72 | 273 | 0.0 | 0.0 | 0.00 | 0.01 | 0.00 | 10 | 1011.4 |
| 20260905125800 | 72 | 273 | 0.0 | 0.0 | 0.00 | 0.01 | 0.00 | 10 | 1011.4 |
| 20260905125226 | 72 | 273 | 0.0 | 0.0 | 0.00 | 0.01 | 0.00 | 10 | 1011.5 |
| 20260905124652 | 72 | 273 | 0.0 | 0.0 | 0.00 | 0.01 | 0.00 | 10 | 1011.3 |
| 20260905123548 | 71 | 273 | 0.0 | 0.0 | 0.00 | 0.01 | 0.00 | 10 | 1011.3 |
| 20260905122444 | 71 | 273 | 0.0 | 0.0 | 0.00 | 0.01 | 0.00 | 10 | 1011.2 |
| 20260905121910 | 71 | 273 | 0.0 | 0.0 | 0.00 | 0.01 | 0.00 | 10 | 1011.3 |
| 20260905120806 | 70 | 273 | 0.0 | 0.0 | 0.00 | 0.01 | 0.00 | 10 | 1011.3 |
| 20260905120232 | 70 | 273 | 0.0 | 0.0 | 0.00 | 0.01 | 0.00 | 10 | 1011.3 |
| 20260905115128 | 70 | 273 | 0.0 | 0.0 | 0.00 | 0.01 | 0.00 | 10 | 1011.2 |
| 20260905114024 | 69 | 273 | 0.0 | 0.0 | 0.00 | 0.01 | 0.00 | 10 | 1011.2 |
| 20260905113450 | 69 | 273 | 0.0 | 0.0 | 0.00 | 0.01 | 0.00 | 10 | 1011.0 |
| 20260905112346 | 69 | 273 | 0.0 | 0.0 | 0.00 | 0.01 | 0.00 | 10 | 1011.1 |
| 20260905111812 | 69 | 273 | 0.0 | 0.0 | 0.00 | 0.01 | 0.00 | 10 | 1011.2 |
| 20260905111237 | 69 | 273 | 0.0 | 0.0 | 0.00 | 0.01 | 0.00 | 10 | 1011.1 |
| 20260905110133 | 69 | 273 | 0.0 | 0.0 | 0.00 | 0.01 | 0.00 | 10 | 1010.5 |
| 20260905105559 | 69 | 273 | 0.0 | 0.0 | 0.00 | 0.01 | 0.00 | 10 | 1010.5 |
| 20260905105026 | 69 | 273 | 0.0 | 0.0 | 0.00 | 0.01 | 0.00 | 10 | 1010.4 |
| 20260905104451 | 69 | 273 | 0.0 | 0.0 | 0.00 | 0.01 | 0.00 | 10 | 1010.4 |
| 20260905103347 | 69 | 273 | 0.0 | 0.0 | 0.00 | 0.01 | 0.00 | 10 | 1010.3 |
| 20260905102243 | 69 | 273 | 0.0 | 0.0 | 0.00 | 0.01 | 0.00 | 10 | 1010.1 |
| 20260905101139 | 69 | 273 | 0.0 | 0.0 | 0.00 | 0.01 | 0.00 | 10 | 1010.2 |
| 20260905100605 | 69 | 273 | 0.0 | 0.0 | 0.00 | 0.01 | 0.00 | 10 | 1010.3 |
| 20260905100030 | 69 | 273 | 0.0 | 0.0 | 0.00 | 0.01 | 0.00 | 10 | 1010.2 |
| 20260905094356 | 69 | 273 | 0.0 | 0.0 | 0.00 | 0.01 | 0.00 | 10 | 1010.1 |
| 20260905093822 | 70 | 273 | 0.0 | 0.0 | 0.00 | 0.01 | 0.00 | 10 | 1010.1 |
| 20260905093248 | 69 | 273 | 0.0 | 0.0 | 0.00 | 0.01 | 0.00 | 10 | 1010.0 |
| 20260905092714 | 70 | 273 | 0.0 | 0.0 | 0.00 | 0.01 | 0.00 | 10 | 1010.1 |
| 20260905092139 | 70 | 273 | 0.0 | 0.0 | 0.00 | 0.01 | 0.00 | 10 | 1010.1 |
| 20260905091605 | 70 | 273 | 0.0 | 0.0 | 0.00 | 0.01 | 0.00 | 10 | 1010.0 |
| 20260905091032 | 70 | 273 | 0.0 | 0.0 | 0.00 | 0.01 | 0.00 | 10 | 1010.0 |
| 20260905085357 | 70 | 273 | 0.0 | 0.0 | 0.00 | 0.01 | 0.00 | 10 | 1010.0 |
| 20260905084823 | 70 | 273 | 0.0 | 0.0 | 0.00 | 0.01 | 0.00 | 10 | 1010.1 |
| 20260905084249 | 70 | 273 | 0.0 | 0.0 | 0.00 | 0.01 | 0.00 | 10 | 1009.9 |
| 20260905083715 | 70 | 273 | 0.0 | 0.0 | 0.00 | 0.01 | 0.00 | 10 | 1010.0 |
| 20260905083141 | 70 | 273 | 0.0 | 0.0 | 0.00 | 0.02 | 0.00 | 10 | 1010.0 |
| 20260905080407 | 70 | 273 | 0.0 | 0.0 | 0.00 | 0.02 | 0.00 | 10 | 1010.1 |
| 20260905075833 | 70 | 274 | 0.0 | 0.0 | 0.00 | 0.02 | 0.00 | 10 | 1010.3 |
| 20260905074728 | 70 | 273 | 0.0 | 0.0 | 0.00 | 0.02 | 0.00 | 10 | 1010.4 |
| 20260905074154 | 70 | 273 | 0.0 | 0.0 | 0.00 | 0.02 | 0.00 | 10 | 1010.3 |
| 20260905073050 | 71 | 273 | 0.0 | 0.0 | 0.00 | 0.02 | 0.00 | 10 | 1010.4 |
| 20260905071946 | 71 | 273 | 0.0 | 0.0 | 0.00 | 0.02 | 0.00 | 10 | 1010.4 |
| 20260905071412 | 71 | 273 | 0.0 | 0.0 | 0.00 | 0.02 | 0.00 | 10 | 1010.4 |
| 20260905070838 | 71 | 273 | 0.0 | 0.0 | 0.00 | 0.02 | 0.00 | 10 | 1010.5 |
| 20260905070303 | 71 | 273 | 0.0 | 0.0 | 0.00 | 0.02 | 0.00 | 10 | 1010.4 |
| 20260905065729 | 71 | 273 | 0.0 | 0.0 | 0.00 | 0.02 | 0.00 | 10 | 1010.5 |
| 20260905064625 | 71 | 273 | 0.0 | 0.0 | 0.00 | 0.02 | 0.00 | 10 | 1010.6 |
| 20260905063521 | 71 | 273 | 0.0 | 0.0 | 0.00 | 0.02 | 0.00 | 10 | 1010.9 |
| 20260905061847 | 71 | 273 | 0.0 | 0.0 | 0.00 | 0.02 | 0.00 | 10 | 1011.2 |
| 20260905061313 | 71 | 273 | 0.0 | 0.0 | 0.00 | 0.02 | 0.00 | 10 | 1011.4 |
| 20260905060209 | 71 | 273 | 0.0 | 0.0 | 0.00 | 0.02 | 0.00 | 10 | 1011.5 |
| 20260905055105 | 71 | 273 | 0.0 | 0.0 | 0.00 | 0.02 | 0.00 | 10 | 1011.5 |
| 20260905054530 | 71 | 273 | 0.0 | 0.0 | 0.00 | 0.02 | 0.00 | 10 | 1011.6 |
| 20260905053956 | 71 | 273 | 0.0 | 0.0 | 0.00 | 0.02 | 0.00 | 10 | 1011.6 |
| 20260905053422 | 71 | 273 | 0.0 | 0.0 | 0.00 | 0.02 | 0.00 | 10 | 1011.8 |
| 20260905052848 | 71 | 273 | 0.0 | 0.0 | 0.00 | 0.07 | 0.00 | 10 | 1011.7 |
| 20260905052315 | 71 | 273 | 0.0 | 0.0 | 0.00 | 0.07 | 0.00 | 10 | 1011.8 |
| 20260905051210 | 71 | 273 | 0.0 | 0.0 | 0.00 | 0.07 | 0.00 | 10 | 1011.8 |
| 20260905050636 | 71 | 273 | 0.0 | 0.0 | 0.00 | 0.07 | 0.00 | 10 | 1011.9 |
| 20260905045528 | 72 | 273 | 0.0 | 0.0 | 0.00 | 0.07 | 0.00 | 10 | 1012.0 |
| 20260905044954 | 72 | 274 | 0.0 | 0.0 | 0.00 | 0.07 | 0.00 | 10 | 1012.0 |
| 20260905044420 | 72 | 273 | 0.0 | 0.0 | 0.00 | 0.07 | 0.00 | 10 | 1012.0 |
| 20260905043846 | 72 | 273 | 0.0 | 0.0 | 0.00 | 0.07 | 0.00 | 10 | 1012.0 |
| 20260905042742 | 72 | 273 | 0.0 | 0.0 | 0.00 | 0.72 | 0.07 | 10 | 1012.1 |
| 20260905042208 | 72 | 273 | 0.0 | 0.0 | 0.00 | 0.72 | 0.07 | 10 | 1012.1 |
| 20260905040004 | 72 | 273 | 0.0 | 0.0 | 0.00 | 0.72 | 0.07 | 10 | 1012.2 |
| 20260905035430 | 72 | 274 | 0.0 | 0.0 | 0.00 | 0.72 | 0.07 | 10 | 1012.3 |
| 20260905034856 | 72 | 359 | 0.0 | 0.0 | 0.00 | 0.72 | 0.07 | 10 | 1012.2 |
| 20260905034322 | 72 | 273 | 0.0 | 0.0 | 0.00 | 0.72 | 0.07 | 10 | 1012.3 |
| 20260905033748 | 72 | 273 | 0.0 | 0.0 | 0.00 | 0.72 | 0.07 | 10 | 1012.3 |
| 20260905032643 | 72 | 274 | 0.0 | 0.0 | 0.00 | 0.90 | 0.07 | 10 | 1012.4 |
| 20260905032109 | 72 | 274 | 0.0 | 0.0 | 0.00 | 0.90 | 0.07 | 10 | 1012.3 |
| 20260905031535 | 72 | 273 | 0.0 | 0.0 | 0.00 | 0.90 | 0.07 | 10 | 1012.4 |
| 20260905031002 | 72 | 273 | 0.0 | 0.0 | 0.00 | 0.90 | 0.07 | 10 | 1012.4 |
| 20260905030427 | 72 | 273 | 0.0 | 0.0 | 0.00 | 0.90 | 0.07 | 10 | 1012.4 |
| 20260905025853 | 72 | 274 | 0.0 | 0.0 | 0.00 | 0.90 | 0.07 | 10 | 1012.3 |
| 20260905024749 | 72 | 273 | 0.0 | 0.0 | 0.00 | 0.90 | 0.07 | 10 | 1012.4 |
| 20260905024215 | 72 | 273 | 0.0 | 0.0 | 0.00 | 0.90 | 0.07 | 10 | 1012.3 |
| 20260905023640 | 72 | 274 | 0.0 | 0.0 | 0.00 | 0.90 | 0.07 | 10 | 1012.4 |
| 20260905022536 | 72 | 273 | 0.0 | 0.0 | 0.00 | 0.90 | 0.07 | 10 | 1012.4 |
| 20260905022002 | 72 | 273 | 0.0 | 0.0 | 0.00 | 0.90 | 0.07 | 10 | 1012.2 |
| 20260905020858 | 72 | 273 | 0.0 | 0.0 | 0.00 | 0.90 | 0.07 | 10 | 1012.0 |
| 20260905020324 | 72 | 273 | 0.0 | 0.0 | 0.00 | 0.90 | 0.07 | 10 | 1011.7 |
| 20260905015750 | 72 | 273 | 0.0 | 0.0 | 0.00 | 0.90 | 0.07 | 10 | 1011.9 |
| 20260905015216 | 72 | 272 | 0.0 | 0.0 | 0.00 | 0.90 | 0.07 | 10 | 1011.9 |
| 20260905013012 | 72 | 274 | 0.0 | 0.0 | 0.00 | 0.90 | 0.07 | 10 | 1011.8 |
| 20260905012438 | 73 | 273 | 0.0 | 0.0 | 0.00 | 0.90 | 0.07 | 10 | 1011.7 |
| 20260905011904 | 73 | 273 | 0.0 | 0.0 | 0.00 | 0.90 | 0.07 | 10 | 1011.5 |
| 20260905011330 | 73 | 276 | 0.0 | 0.0 | 0.00 | 0.90 | 0.07 | 10 | 1011.4 |
| 20260905010225 | 73 | 276 | 0.0 | 0.0 | 0.00 | 0.90 | 0.07 | 10 | 1011.2 |
| 20260905005121 | 73 | 276 | 0.0 | 0.0 | 0.00 | 0.90 | 0.07 | 10 | 1011.2 |
| 20260905004547 | 73 | 276 | 0.0 | 0.0 | 0.00 | 0.90 | 0.07 | 10 | 1011.2 |
| 20260905004013 | 73 | 276 | 0.0 | 0.0 | 0.00 | 0.90 | 0.07 | 10 | 1011.3 |
| 20260905002339 | 73 | 275 | 0.0 | 0.0 | 0.00 | 0.90 | 0.07 | 10 | 1011.3 |
| 20260905001805 | 74 | 276 | 0.0 | 0.0 | 0.00 | 0.90 | 0.07 | 10 | 1011.2 |
| 20260905001230 | 74 | 276 | 0.0 | 0.0 | 0.00 | 0.90 | 0.07 | 10 | 1011.2 |
| 20260904235556 | 74 | 276 | 0.0 | 0.0 | 0.00 | 0.90 | 0.07 | 10 | 1011.3 |
| 20260904235022 | 74 | 276 | 0.0 | 0.0 | 0.00 | 0.90 | 0.07 | 10 | 1011.3 |
| 20260904234448 | 74 | 276 | 0.0 | 0.0 | 0.00 | 0.90 | 0.07 | 10 | 1011.3 |
| 20260904233344 | 74 | 276 | 0.0 | 0.0 | 0.00 | 0.90 | 0.07 | 10 | 1011.5 |
| 20260904231710 | 74 | 276 | 0.0 | 0.0 | 0.00 | 0.90 | 0.07 | 10 | 1011.3 |
| 20260904231136 | 74 | 276 | 0.0 | 0.0 | 0.00 | 0.90 | 0.07 | 10 | 1011.5 |
| 20260904230602 | 75 | 276 | 0.0 | 0.0 | 0.00 | 0.90 | 0.07 | 10 | 1011.4 |
| 20260904230028 | 75 | 276 | 0.0 | 0.0 | 0.00 | 0.90 | 0.07 | 10 | 1011.5 |
| 20260904225454 | 75 | 276 | 0.0 | 0.0 | 0.00 | 0.90 | 0.07 | 10 | 1011.3 |
| 20260904223819 | 74 | 276 | 0.0 | 0.0 | 0.00 | 0.90 | 0.07 | 10 | 1010.8 |
| 20260904222715 | 74 | 276 | 0.0 | 0.0 | 0.00 | 0.90 | 0.07 | 10 | 1011.1 |
| 20260904222141 | 74 | 276 | 0.0 | 0.0 | 0.00 | 0.90 | 0.07 | 10 | 1011.5 |
| 20260904221607 | 74 | 276 | 0.0 | 0.0 | 0.00 | 0.90 | 0.07 | 10 | 1011.5 |
| 20260904220503 | 74 | 276 | 0.0 | 0.0 | 0.00 | 0.90 | 0.07 | 10 | 1011.8 |
| 20260904215929 | 74 | 276 | 0.0 | 0.0 | 0.00 | 0.90 | 0.07 | 10 | 1011.9 |
| 20260904215355 | 74 | 276 | 0.0 | 0.0 | 0.01 | 0.90 | 0.07 | 10 | 1011.9 |
| 20260904214821 | 74 | 276 | 0.0 | 0.0 | 0.01 | 0.90 | 0.07 | 10 | 1011.9 |
| 20260904214247 | 74 | 276 | 0.0 | 0.0 | 0.01 | 0.90 | 0.07 | 10 | 1011.9 |
| 20260904213713 | 74 | 276 | 0.0 | 0.0 | 0.01 | 0.90 | 0.07 | 10 | 1011.9 |
| 20260904213139 | 74 | 276 | 0.0 | 0.0 | 0.01 | 0.90 | 0.07 | 10 | 1011.8 |
| 20260904212035 | 74 | 276 | 0.0 | 0.0 | 0.01 | 0.90 | 0.07 | 10 | 1011.8 |
| 20260904211501 | 75 | 276 | 0.0 | 0.0 | 0.01 | 0.90 | 0.07 | 10 | 1011.9 |
| 20260904210357 | 76 | 276 | 0.0 | 0.0 | 0.01 | 0.90 | 0.07 | 10 | 1012.0 |
| 20260904205252 | 78 | 278 | 1.0 | 0.0 | 0.00 | 0.89 | 0.06 | 96 | 1012.4 |
| 20260904204718 | 80 | 220 | 2.0 | 0.0 | 0.00 | 0.89 | 0.06 | 92 | 1012.5 |
| 20260904203610 | 83 | 70 | 0.0 | 0.0 | 0.00 | 0.89 | 0.06 | 89 | 1012.1 |
| 20260904203036 | 84 | 70 | 0.0 | 0.0 | 0.00 | 0.89 | 0.06 | 89 | 1011.9 |
| 20260904201928 | 85 | 69 | 0.0 | 0.0 | 0.00 | 0.89 | 0.06 | 86 | 1012.0 |
| 20260904200824 | 86 | 120 | 0.0 | 0.0 | 0.00 | 0.89 | 0.06 | 86 | 1011.9 |
| 20260904194616 | 86 | 112 | 0.0 | 0.0 | 0.00 | 0.89 | 0.06 | 85 | 1011.5 |
| 20260904194042 | 86 | 112 | 0.0 | 0.0 | 0.00 | 0.89 | 0.06 | 83 | 1011.5 |
| 20260904192938 | 86 | 112 | 0.0 | 0.0 | 0.00 | 0.89 | 0.06 | 81 | 1011.6 |
| 20260904192404 | 87 | 104 | 0.0 | 0.0 | 0.00 | 0.89 | 0.06 | 81 | 1011.6 |
| 20260904191829 | 87 | 104 | 0.0 | 0.0 | 0.00 | 0.89 | 0.06 | 82 | 1011.7 |
| 20260904191255 | 86 | 104 | 0.0 | 0.0 | 0.00 | 0.89 | 0.06 | 79 | 1011.7 |
| 20260904190721 | 87 | 214 | 0.0 | 0.0 | 0.00 | 0.89 | 0.06 | 81 | 1011.6 |
| 20260904190147 | 86 | 214 | 0.0 | 0.0 | 0.00 | 0.89 | 0.06 | 82 | 1011.7 |
| 20260904185613 | 86 | 214 | 0.0 | 0.0 | 0.00 | 0.89 | 0.06 | 81 | 1011.9 |
| 20260904184509 | 86 | 214 | 1.0 | 0.0 | 0.00 | 0.89 | 0.06 | 82 | 1012.2 |
| 20260904182835 | 85 | 216 | 0.0 | 0.0 | 0.00 | 0.89 | 0.06 | 81 | 1012.5 |
| 20260904181731 | 86 | 261 | 1.0 | 0.0 | 0.00 | 0.89 | 0.06 | 81 | 1012.6 |
| 20260904180627 | 86 | 79 | 1.0 | 0.0 | 0.00 | 0.89 | 0.06 | 80 | 1012.7 |
| 20260904180053 | 86 | 74 | 1.0 | 0.0 | 0.00 | 0.89 | 0.06 | 79 | 1012.8 |